Theta_e
352 354 357 354 354 355 355 355 355 354 354 354 355 354 354 355 355 355 355 355 354 354 354 354 354 354 354 353 352 351 350 349 348 347 347 348 345 346 348 351 351 352 351 350 349 349 350 350 351 350 350 349 350 349 348 346 345 345 345 345 344 343 343 343 343 342 342 342 343 342 342 342 342 342 341 341 340 340 340 339 341 339 339 340 342
352 354 358 357 353 355 355 355 355 354 354 354 354 354 354 354 354 354 355 354 353 353 353 353 353 353 352 352 351 351 350 349 348 347 347 348 347 346 345 350 351 351 351 351 350 349 349 349 349 349 349 348 348 348 348 347 346 345 345 344 343 343 343 342 343 343 344 344 343 342 342 341 341 341 341 340 339 339 340 340 342 340 339 339 340
354 354 358 356 354 355 356 355 354 354 354 353 354 354 354 354 353 354 354 354 353 353 354 354 353 353 352 351 350 350 350 349 348 348 348 348 348 347 346 348 349 349 348 349 349 348 348 349 348 348 347 347 347 347 346 346 345 345 344 344 344 343 343 343 344 344 342 342 342 341 341 340 341 340 340 340 339 339 339 339 339 340 338 338 339
352 354 357 356 354 354 354 355 354 354 353 353 353 353 353 354 354 354 354 354 354 353 353 353 352 352 351 351 350 350 350 350 349 349 348 348 348 348 350 349 348 348 347 348 349 348 348 348 348 347 347 346 346 347 347 346 345 344 344 343 343 343 344 344 343 342 341 342 342 342 342 341 340 339 340 340 339 340 339 339 338 338 338 338 338
352 354 357 357 357 354 354 354 354 354 353 352 352 352 354 354 354 355 354 354 353 353 352 351 351 350 351 350 350 349 349 349 349 348 348 349 349 349 350 350 350 349 348 348 347 347 347 346 345 345 344 346 346 345 346 346 345 345 344 343 343 345 344 341 341 341 343 341 342 346 345 343 342 339 340 339 341 340 339 339 338 338 338 338 338
352 354 354 359 357 356 353 354 354 353 353 353 352 352 353 354 354 354 354 353 353 352 352 351 351 351 350 350 350 350 349 349 349 349 350 349 351 349 348 349 349 349 349 348 347 347 347 345 344 345 345 345 345 345 345 345 345 346 345 344 345 345 344 343 342 342 341 341 341 346 344 344 341 339 340 339 339 339 339 339 339 339 338 337 338
353 355 356 354 357 354 353 353 354 353 353 353 352 353 353 354 354 354 354 354 353 352 352 352 351 351 350 350 350 350 350 349 349 349 349 349 349 350 348 349 349 349 347 347 346 345 345 345 345 345 345 345 345 345 345 345 346 346 347 347 345 344 343 343 342 341 341 343 348 347 346 343 342 340 340 340 339 338 337 338 338 338 338 338 337
353 353 357 356 352 353 352 354 353 354 353 352 352 352 353 354 354 354 354 354 353 353 353 352 352 351 351 350 350 350 350 350 350 349 349 349 349 349 349 348 348 348 347 346 346 345 345 345 345 344 345 345 344 344 344 344 344 345 345 345 344 343 343 342 341 340 340 344 346 347 347 344 343 339 339 339 340 339 339 338 337 337 337 337 339
351 352 355 352 356 351 352 353 354 353 352 352 352 352 352 353 353 353 353 353 353 353 353 352 352 352 352 351 351 351 350 350 350 350 350 349 348 348 349 348 347 347 346 347 348 347 346 345 345 345 345 344 345 344 343 344 344 344 344 344 343 342 341 341 340 340 342 344 345 343 345 344 343 341 340 340 339 336 335 337 337 337 336 337 338
348 351 351 356 353 348 350 351 353 352 352 352 352 352 352 353 353 353 353 354 353 353 353 353 353 352 352 351 351 350 351 350 350 350 350 350 349 349 347 346 346 346 346 345 345 345 345 346 345 346 345 345 344 344 344 344 344 343 343 343 342 342 341 339 338 339 344 342 343 345 345 345 342 339 339 337 335 336 337 338 339 338 337 337 337
349 350 352 352 354 347 347 348 349 351 352 352 352 352 352 352 353 353 353 353 353 353 353 353 353 352 352 351 351 351 351 350 350 350 349 349 348 348 347 346 346 346 345 345 345 345 345 345 345 346 346 345 344 343 343 343 342 342 342 342 341 341 340 339 339 341 343 343 344 343 341 341 342 342 338 336 337 336 336 336 336 336 339 339 339
347 350 352 352 354 346 346 347 348 349 350 352 352 352 352 352 353 352 353 352 353 353 353 353 353 353 352 352 352 351 351 350 349 349 349 348 348 348 347 346 346 345 345 345 345 345 345 345 345 346 345 344 344 343 341 341 341 341 341 340 340 339 338 339 341 342 342 341 342 343 342 341 340 337 338 337 336 337 336 336 336 336 336 337 337
345 347 350 352 353 349 346 346 347 349 349 350 352 352 352 352 352 352 353 352 353 353 353 353 353 353 352 351 351 351 350 349 349 349 349 348 348 348 347 347 346 345 345 344 344 344 345 345 345 345 345 345 343 342 341 341 341 341 341 340 339 339 338 338 340 339 341 342 341 342 341 342 342 338 337 337 337 337 336 336 335 335 335 335 335
345 347 349 351 350 353 348 347 347 348 349 349 350 352 352 352 352 352 352 352 353 353 352 352 352 352 352 352 351 351 350 349 349 349 349 348 348 345 347 346 346 345 345 344 344 345 345 345 344 344 344 344 342 341 341 341 342 342 341 340 339 339 339 339 342 340 340 340 343 341 341 342 340 337 337 337 338 336 334 334 334 334 335 335 335
345 347 349 349 351 351 353 349 347 348 348 348 349 350 351 352 352 352 352 352 352 353 352 352 352 352 352 352 351 351 351 350 349 349 348 347 348 346 346 345 346 345 345 344 344 345 345 344 344 344 343 343 342 341 341 341 342 342 342 340 340 339 338 338 338 339 339 339 339 339 340 341 337 337 337 338 337 336 335 335 334 334 334 334 334
347 348 347 347 349 352 353 354 349 348 347 347 347 348 348 349 350 351 351 352 351 352 352 352 352 351 352 351 351 350 350 350 350 349 347 347 347 346 345 345 344 345 345 345 344 344 344 344 344 343 343 343 342 340 340 341 342 343 342 341 339 339 339 341 340 340 339 340 340 341 340 340 338 338 338 338 337 335 334 333 333 334 334 334 334
347 348 348 348 348 349 351 353 351 348 347 345 345 344 344 345 347 349 351 350 349 350 351 351 351 351 351 351 350 350 350 349 349 349 347 346 347 347 345 345 344 345 345 345 345 344 344 344 344 344 343 342 341 340 339 340 342 342 343 341 339 338 339 341 339 341 341 339 337 339 342 339 339 339 337 337 336 335 334 333 333 333 334 333 333
346 346 348 349 350 350 352 352 352 354 351 348 342 339 339 342 343 344 342 345 346 349 350 349 347 346 349 350 350 350 349 349 349 348 347 347 347 347 346 345 344 344 345 345 345 344 344 344 344 343 343 342 340 339 338 340 341 342 341 341 339 338 338 338 340 340 340 338 339 340 341 342 341 338 336 336 335 334 333 333 333 333 332 333 334
345 346 347 347 347 351 351 352 355 354 351 353 347 343 340 340 339 340 342 343 345 346 344 346 344 344 348 348 350 349 348 347 348 347 347 347 347 347 346 344 343 343 345 345 345 345 345 344 344 343 342 341 339 339 339 339 340 341 341 341 339 338 339 338 339 339 338 341 341 341 341 339 342 337 336 335 334 334 333 332 332 332 333 333 333
343 343 344 345 345 345 349 351 353 354 355 355 354 347 342 338 338 337 338 342 343 342 341 343 346 344 344 348 348 349 347 349 347 348 346 346 347 345 347 344 343 343 343 343 345 344 344 344 343 341 340 340 339 338 339 340 340 339 339 341 340 339 341 341 339 338 339 338 341 341 339 339 338 336 336 335 334 334 333 332 331 331 332 332 332
341 341 343 344 344 344 343 344 348 351 351 353 352 352 345 342 341 337 338 341 343 341 341 340 344 345 347 346 345 349 350 351 350 346 347 349 346 347 347 347 343 343 344 344 343 344 344 343 342 341 340 339 339 339 339 339 339 339 339 339 341 341 343 341 341 339 339 336 339 339 339 337 336 336 336 335 334 334 332 332 332 331 331 332 332
339 340 341 340 341 341 341 342 344 348 351 351 348 348 351 347 344 344 343 342 341 340 346 350 346 351 343 347 350 348 347 350 349 345 348 347 347 346 346 347 346 342 342 343 343 343 343 342 341 341 340 339 338 336 337 338 337 337 339 341 342 342 342 342 342 338 338 339 339 338 339 336 335 336 335 334 334 334 333 332 331 330 330 331 331
337 339 339 338 340 340 341 341 341 344 349 350 351 350 347 348 349 345 346 344 345 348 348 349 347 347 348 346 345 343 347 345 345 347 348 344 346 346 345 347 346 344 342 344 344 343 342 341 341 340 339 338 335 337 336 333 337 335 337 341 342 340 342 343 342 340 338 339 340 338 338 337 337 336 335 334 334 334 332 332 331 330 330 330 331
337 337 338 339 340 340 339 340 341 342 344 346 351 351 350 347 348 350 350 348 349 344 346 344 344 343 342 344 346 348 345 347 343 341 343 343 345 345 344 344 342 343 344 344 343 343 342 340 339 341 340 336 336 336 335 334 335 337 339 339 339 340 341 341 339 340 339 336 337 339 338 337 337 337 335 334 334 333 333 332 332 330 329 329 330
339 338 338 338 339 340 340 340 340 341 341 343 344 349 351 348 346 347 350 349 347 347 348 348 346 347 347 349 346 348 346 348 343 346 344 344 344 345 347 345 345 344 344 343 337 340 341 339 340 338 336 336 335 336 337 335 336 336 337 338 339 340 340 341 339 338 340 340 341 340 338 338 338 337 336 335 335 333 332 332 332 331 329 329 329
340 338 338 338 339 340 339 338 340 340 342 342 341 342 347 347 347 346 347 348 347 346 346 346 347 348 349 348 348 348 347 345 346 345 344 346 344 342 342 343 344 344 341 341 336 337 335 337 341 338 336 337 336 336 336 337 335 335 335 338 338 339 339 339 340 339 340 340 342 340 339 339 338 337 337 336 335 333 332 333 332 332 330 329 328
339 338 340 339 339 339 338 338 338 339 341 339 341 341 341 341 347 347 344 345 346 345 344 344 345 347 350 349 347 346 345 345 345 344 344 346 343 342 341 343 343 342 343 343 336 336 335 335 338 338 337 336 335 335 334 335 335 333 335 335 337 337 338 339 340 339 340 339 342 340 339 339 339 338 336 336 336 334 333 332 331 332 331 329 329
339 337 340 339 340 337 339 338 338 339 341 338 340 340 341 342 342 344 347 344 344 344 343 344 346 346 348 348 348 346 345 344 345 344 344 346 344 344 343 341 340 341 343 342 336 335 334 334 336 335 335 335 333 334 332 332 334 335 334 335 336 337 338 337 340 341 341 341 342 339 339 339 339 340 337 336 337 335 334 333 332 333 331 330 330
337 340 340 337 336 338 338 336 338 338 340 339 339 339 341 342 343 342 340 342 344 345 345 347 346 345 347 347 347 346 346 344 344 345 345 346 344 343 342 342 341 340 342 341 338 337 335 335 334 334 334 334 333 333 332 332 334 335 333 333 334 334 337 338 339 338 339 339 341 341 340 339 340 340 340 336 336 336 336 334 333 333 332 331 330
339 342 340 338 335 336 335 335 337 336 338 338 339 338 338 339 340 342 346 347 343 344 346 343 347 346 345 347 347 345 345 346 344 346 344 344 342 341 342 343 343 343 342 337 335 337 336 333 334 332 329 331 330 331 331 332 331 332 332 332 333 334 337 336 337 337 338 339 341 343 338 339 339 339 339 340 337 336 336 334 334 332 332 330 331
341 339 338 336 338 334 333 334 335 340 335 333 337 338 339 338 338 341 346 344 346 347 345 346 344 345 347 348 346 344 346 346 345 346 345 344 343 342 343 344 345 345 343 337 338 336 336 334 332 329 327 329 330 330 331 331 332 330 332 330 331 334 335 337 336 336 336 337 339 340 339 339 339 340 340 339 339 338 336 336 335 334 334 332 331
338 338 337 338 339 334 332 334 337 343 341 333 338 336 337 336 339 340 341 345 348 345 345 345 345 343 345 347 346 343 341 345 344 343 345 344 344 344 344 342 341 345 343 338 336 337 337 333 334 334 330 328 331 333 334 332 331 330 331 329 330 332 333 335 335 336 335 337 337 339 340 339 340 340 339 339 339 339 338 337 336 336 334 333 332
337 339 338 341 339 340 336 337 337 344 339 335 334 336 337 337 339 339 340 342 342 343 343 344 345 346 346 346 345 343 343 337 339 344 343 342 342 342 341 341 341 337 341 340 337 337 337 333 330 331 334 332 330 332 332 333 333 333 333 331 332 330 330 333 335 335 334 334 335 337 339 339 342 339 338 339 339 339 339 339 337 337 335 335 334
335 338 343 340 341 344 343 342 341 338 339 335 337 333 336 337 338 337 339 339 338 339 342 343 343 343 343 344 342 341 340 343 339 340 343 341 341 341 339 338 340 342 343 341 336 335 334 331 328 328 329 331 330 331 331 330 331 333 333 333 334 334 332 331 333 333 334 334 335 337 338 338 338 341 340 340 339 338 338 339 339 338 337 335 335
335 338 339 339 343 343 344 342 343 339 338 337 336 335 337 334 333 335 336 338 336 336 337 344 343 343 342 342 341 340 340 339 340 341 342 341 340 341 339 340 341 342 342 341 337 335 335 335 333 330 331 330 329 331 331 332 333 332 334 335 332 331 333 332 332 332 332 335 336 336 337 338 337 339 337 341 340 338 337 338 339 339 339 336 336
339 340 339 341 340 343 343 341 341 341 339 339 339 338 336 336 335 333 336 336 333 333 334 337 337 342 342 341 336 338 341 335 339 341 343 341 339 339 341 342 340 341 341 341 341 336 334 337 337 334 329 329 330 331 332 332 334 334 337 336 335 334 332 333 332 331 331 333 334 336 336 337 338 337 338 338 341 340 337 337 338 338 339 340 337
341 340 339 341 340 342 342 341 340 339 339 340 338 337 336 335 335 334 332 334 333 332 332 335 335 336 336 339 339 340 339 341 342 341 341 342 339 338 342 340 338 338 338 340 341 341 340 335 338 335 334 332 330 329 332 334 335 336 336 336 335 334 332 332 332 332 331 333 333 333 334 334 336 336 338 338 340 340 337 337 338 337 337 338 339
341 341 341 340 339 340 341 341 340 340 339 337 336 334 334 334 332 331 332 331 333 333 332 333 333 332 335 334 336 338 341 342 342 341 340 340 340 339 334 335 334 338 338 338 337 338 340 341 338 340 337 337 334 332 334 336 333 334 336 335 336 337 332 332 333 332 331 330 332 331 332 334 334 335 336 338 338 340 341 338 337 336 336 335 335
338 339 340 340 339 339 340 341 341 340 337 337 336 336 335 333 332 332 330 330 332 332 332 331 331 333 334 334 334 335 335 335 337 340 342 339 338 338 336 333 338 338 339 337 337 336 337 338 337 338 339 340 339 337 337 335 333 331 331 335 335 334 338 337 334 331 331 331 330 331 331 334 335 334 336 336 337 338 340 341 340 340 339 334 336
336 337 337 339 338 339 339 339 339 337 336 334 331 328 327 325 326 327 326 328 329 330 332 331 332 330 332 331 333 334 332 333 334 335 336 337 338 338 338 338 338 336 336 337 337 336 336 334 335 335 336 336 338 338 338 335 333 332 331 332 331 333 333 334 336 333 334 333 333 333 333 333 334 335 335 336 336 336 337 338 337 337 339 337 334
334 335 335 336 337 335 336 335 336 336 332 329 328 325 324 324 325 325 324 326 327 330 329 331 330 329 330 329 330 330 331 331 331 331 332 333 333 334 336 335 336 336 336 337 338 338 337 336 334 335 334 333 334 337 337 335 330 330 333 332 333 336 334 336 336 336 333 333 333 333 333 334 334 334 336 336 334 335 335 336 337 338 338 339 339
331 333 333 334 335 335 335 335 335 333 331 330 328 326 326 324 324 324 324 322 322 324 326 329 328 329 328 328 328 328 329 330 330 331 330 330 331 331 332 332 333 335 336 337 338 336 336 336 334 333 334 331 331 334 335 333 329 326 327 327 329 333 331 332 333 334 334 334 335 334 335 334 332 334 336 336 336 334 334 335 336 336 336 338 339
332 331 333 333 334 334 334 336 333 332 331 331 328 326 326 328 326 324 323 323 328 329 326 325 326 324 327 326 326 327 326 328 329 329 329 328 330 330 331 331 333 334 336 337 336 335 337 335 335 334 332 332 332 334 337 335 328 332 331 326 324 322 327 328 332 331 331 331 334 335 334 334 333 335 337 337 336 336 333 334 334 335 337 337 337
330 330 330 331 332 331 334 334 333 332 331 331 327 329 329 331 332 330 329 326 324 325 325 325 324 324 324 326 327 328 327 328 327 327 328 327 329 329 330 330 331 334 336 333 333 332 334 333 335 333 332 329 326 332 334 334 332 330 323 324 325 324 319 323 326 329 333 333 334 335 334 333 334 336 338 337 337 337 336 335 334 336 337 338 337
329 329 329 330 330 330 333 333 332 331 330 330 330 331 329 328 328 329 327 325 324 322 323 322 324 324 324 326 326 328 327 326 327 327 325 326 326 328 328 330 330 330 330 329 330 331 332 334 332 331 331 330 326 329 330 334 333 335 327 323 322 320 320 324 326 327 332 330 332 334 333 334 334 335 336 337 338 339 337 335 336 336 337 337 338
327 329 330 330 330 329 333 332 330 331 329 330 331 327 324 324 322 320 317 318 319 319 319 320 321 322 321 325 326 327 326 326 326 326 326 326 326 326 328 327 329 328 328 327 327 326 326 327 330 332 331 331 327 326 328 333 333 332 333 330 328 320 322 325 323 319 331 332 331 330 332 335 336 336 337 337 337 337 338 338 337 338 338 338 337
326 329 330 330 329 330 333 331 330 330 330 330 330 326 325 323 322 320 319 318 317 319 324 324 324 322 324 325 325 328 326 327 327 327 326 326 326 326 327 326 326 327 327 326 326 326 323 324 327 326 327 328 328 327 326 326 329 331 331 332 330 329 329 324 320 322 317 328 328 327 331 332 334 334 334 336 337 338 340 339 339 337 338 338 338
327 328 329 329 328 330 331 330 329 329 329 330 329 326 324 323 322 320 319 318 319 320 322 325 326 325 324 325 326 326 327 326 326 325 326 326 326 326 326 327 325 325 324 325 325 325 326 326 327 327 326 325 326 324 323 326 325 326 329 329 329 328 328 328 328 324 321 318 322 326 326 331 332 334 334 335 337 338 340 340 338 337 339 339 339
326 327 327 328 328 331 330 331 329 329 329 330 328 326 325 324 322 321 318 319 322 321 321 323 322 325 325 325 325 325 326 327 325 324 324 324 325 325 326 325 323 322 322 322 324 325 326 326 326 326 325 324 324 324 323 321 323 322 323 324 324 325 325 326 328 328 322 320 320 321 323 327 330 333 336 337 337 339 339 338 337 337 338 340 340
327 328 327 327 328 330 329 329 328 327 329 330 328 326 326 326 322 321 320 319 319 320 320 321 323 324 324 325 324 324 324 323 323 323 321 319 320 321 320 320 320 319 318 319 320 321 322 323 324 325 326 325 324 324 322 322 322 322 322 322 320 320 321 322 323 322 324 325 317 317 321 320 319 328 333 334 336 337 337 338 337 335 336 337 339
328 326 326 325 327 329 328 327 327 326 328 328 327 326 326 327 323 322 322 321 320 320 320 321 321 322 323 324 324 323 323 321 321 322 320 320 321 321 320 320 320 319 317 317 319 317 319 320 320 321 322 322 322 323 322 322 322 321 321 320 318 318 318 317 318 320 320 320 318 317 318 319 318 320 327 331 333 333 332 334 334 334 336 337 337
Wind_Speed
11 14 15 17 14 13 13 12 11 12 12 12 11 14 17 15 15 15 15 15 15 15 14 14 13 13 12 11 13 15 13 12 9 8 5 9 8 7 6 12 12 12 12 12 11 10 10 10 10 10 10 10 10 11 11 11 9 9 9 10 10 10 9 10 12 11 12 12 12 13 14 13 13 13 13 13 13 13 12 11 11 10 10 12 14
14 14 15 16 13 14 13 13 12 11 11 11 12 12 14 16 15 15 15 15 15 15 15 15 14 13 13 13 13 13 13 12 10 9 8 10 11 8 3 11 10 12 12 11 10 9 9 9 9 10 10 10 10 11 11 11 10 10 10 10 10 10 10 9 10 11 11 11 12 12 13 13 13 13 13 12 12 11 8 8 8 10 10 11 13
14 15 15 17 14 14 13 13 12 12 11 12 11 12 12 15 17 16 16 16 15 15 15 14 14 14 13 13 13 13 13 12 10 9 10 10 13 13 10 10 10 11 12 12 11 9 10 9 9 9 9 10 10 10 11 10 10 9 10 10 9 10 11 9 8 10 10 11 12 13 13 13 13 13 13 12 11 11 12 12 13 11 11 13 13
14 14 15 16 14 13 13 13 12 12 11 11 11 10 11 11 13 13 13 13 13 14 14 13 13 13 12 13 13 12 12 12 12 11 11 11 11 12 11 11 11 11 11 13 12 10 10 10 10 8 9 9 10 10 11 11 10 9 10 9 9 10 9 8 8 9 10 11 12 11 8 9 10 11 12 12 12 12 13 14 14 15 15 13 14
14 14 15 15 16 14 13 13 12 13 12 11 10 11 11 10 11 11 11 12 12 13 14 14 13 13 13 13 13 13 12 11 11 12 11 11 10 11 11 11 10 10 11 11 11 10 10 9 9 8 8 8 9 10 11 11 10 10 9 10 9 10 9 9 8 9 10 8 9 8 7 8 9 11 11 12 13 12 13 13 13 14 14 13 13
13 14 14 13 14 15 14 14 13 14 13 12 11 11 10 10 11 12 12 13 13 13 13 13 13 13 13 12 12 12 11 11 11 10 8 9 8 9 10 11 11 10 11 10 10 10 10 9 9 9 8 8 9 10 10 10 10 9 8 10 10 9 9 8 8 7 5 4 9 2 6 8 8 8 11 11 12 12 13 13 13 14 14 14 14
14 13 13 13 10 14 13 14 15 15 14 14 12 11 10 10 11 11 12 13 13 13 13 13 13 13 13 12 12 12 11 11 10 9 8 7 7 7 10 10 10 10 10 11 10 10 10 10 10 9 9 9 9 10 10 10 10 9 9 9 10 9 10 9 8 6 7 10 3 4 5 7 8 7 11 10 11 11 12 12 12 12 11 11 11
11 11 11 12 12 13 13 13 15 15 16 15 14 12 11 11 10 11 12 13 12 12 12 12 13 13 14 13 12 12 11 11 10 9 8 7 7 7 8 10 10 10 9 10 10 10 11 10 10 10 9 9 9 10 10 9 8 9 10 10 10 9 9 9 8 7 7 6 3 3 4 7 8 7 9 10 11 11 12 12 12 12 12 12 12
12 13 11 13 12 16 12 13 13 15 15 16 15 14 12 11 11 11 13 13 12 12 12 12 12 12 12 12 12 11 11 11 10 9 7 7 7 7 6 8 8 9 9 8 8 8 9 11 10 10 10 10 10 10 9 8 8 9 9 9 9 9 8 8 7 7 9 2 1 4 5 6 7 8 10 10 10 11 11 11 12 12 11 11 13
12 11 13 11 14 14 11 10 12 14 13 14 14 14 13 12 11 11 11 10 11 12 12 12 12 12 11 11 11 11 11 10 10 9 9 9 9 8 8 8 8 8 8 8 9 8 8 9 10 11 11 11 11 10 10 9 9 9 9 9 9 8 8 7 7 10 2 3 4 3 6 8 8 7 10 9 8 8 12 14 13 11 11 13 14
12 11 9 14 16 15 11 10 9 12 13 14 14 14 13 13 12 11 11 10 10 10 10 11 12 12 11 11 11 10 10 10 10 9 9 9 9 9 8 9 9 8 9 8 8 9 10 10 10 12 13 13 13 11 10 10 9 8 8 7 7 7 7 6 12 3 2 3 5 5 6 5 6 8 9 9 10 10 10 11 11 11 13 14 12
12 11 10 13 18 16 15 11 10 10 12 13 13 13 13 12 12 11 11 10 9 9 9 10 10 11 11 11 11 11 10 10 10 9 9 9 9 9 9 9 9 9 9 8 8 8 10 10 12 14 15 15 14 12 10 9 8 7 7 6 7 7 5 4 9 3 2 3 6 5 5 6 9 9 10 9 11 11 10 11 11 11 11 12 12
12 11 11 12 13 14 13 12 12 10 9 11 13 13 13 12 10 10 10 9 9 8 9 9 9 9 10 10 10 10 10 11 10 9 9 9 9 10 9 10 9 10 10 9 9 9 10 11 13 14 14 15 15 13 11 10 8 8 7 6 6 6 5 7 3 2 3 4 4 4 5 6 8 9 8 10 10 10 10 11 11 11 11 12 11
12 11 11 11 11 14 13 14 12 10 11 9 11 12 12 11 10 9 9 8 9 8 8 8 8 9 9 9 9 9 10 10 10 10 9 9 8 9 9 10 10 10 10 10 10 10 11 12 12 12 13 13 14 14 10 9 7 6 8 8 6 5 5 8 4 2 2 4 2 4 5 5 7 7 9 9 10 10 9 10 10 10 11 11 11
12 12 11 11 12 11 12 12 13 12 11 9 8 9 9 10 9 9 8 8 9 8 8 8 8 8 8 9 8 9 10 10 10 10 9 8 8 8 8 10 11 10 10 10 11 11 12 12 12 12 11 11 11 12 11 8 7 6 7 7 7 5 12 3 3 3 2 2 4 3 5 7 8 5 9 9 9 9 9 10 10 10 10 11 11
12 12 11 11 11 11 11 12 14 14 12 11 9 10 7 6 8 9 8 8 7 7 8 7 7 8 7 7 8 8 9 10 10 10 10 9 8 9 8 9 10 11 10 10 11 11 11 11 11 11 11 10 10 11 11 9 7 7 7 7 6 5 7 12 2 2 2 3 3 2 4 7 4 6 8 10 10 9 9 8 9 10 9 10 10
11 11 11 11 11 10 10 10 12 14 12 11 9 6 6 5 5 6 8 8 8 8 8 8 7 7 8 8 8 9 9 9 10 10 9 8 8 9 9 10 11 12 11 11 11 11 11 11 11 11 10 8 9 10 9 9 8 8 8 8 6 5 6 10 2 1 2 4 3 3 4 7 6 7 8 7 8 8 8 8 8 8 8 9 9
9 10 9 11 10 9 9 9 11 11 11 12 11 6 5 3 5 5 2 3 5 6 6 7 5 5 8 10 9 9 9 8 8 9 9 9 7 8 8 9 11 12 12 12 12 11 11 11 11 11 9 8 7 8 8 8 8 8 9 7 7 5 5 9 0 1 3 1 2 2 4 11 7 7 7 8 8 8 7 7 7 8 7 8 9
8 10 10 8 10 9 10 9 8 8 9 8 10 12 12 9 3 3 4 5 5 3 3 5 7 6 7 9 10 8 9 8 8 8 8 8 8 7 8 9 9 12 12 12 12 11 11 10 10 9 9 8 7 6 5 5 6 7 8 9 8 7 6 9 2 2 4 2 2 3 7 9 5 8 8 7 7 7 7 6 6 7 7 7 7
7 8 8 8 9 9 8 8 7 7 6 6 8 11 14 13 10 4 4 6 4 6 2 3 8 7 8 9 9 9 8 8 9 8 9 8 7 7 8 8 9 9 11 12 12 11 10 10 10 9 9 8 8 6 5 4 3 2 5 8 9 9 6 6 1 2 2 3 1 4 10 2 4 7 7 6 7 8 7 6 5 6 6 6 7
6 7 7 7 8 8 8 7 7 7 7 7 5 8 12 17 16 13 11 7 5 4 4 1 4 7 6 5 5 6 6 6 7 7 8 7 7 4 7 8 9 10 11 11 11 11 11 11 10 9 9 9 8 7 5 5 4 1 3 6 9 8 5 3 3 2 1 4 3 7 7 3 4 6 7 8 8 7 6 6 6 5 5 6 6
8 7 8 8 8 8 7 8 6 7 7 6 6 6 7 10 11 11 10 8 7 4 6 6 6 5 1 4 4 3 6 4 6 7 7 6 6 6 6 6 6 8 9 9 10 11 11 11 11 11 10 9 11 7 6 5 5 2 2 6 9 4 3 3 3 3 2 3 2 10 7 4 4 5 6 7 7 7 7 6 5 5 4 5 6
9 8 7 8 7 7 8 7 8 7 7 7 5 5 7 5 7 10 9 12 11 10 8 7 8 7 5 3 3 5 6 8 6 5 2 6 4 9 7 6 5 6 7 8 9 8 9 9 8 8 8 10 9 5 5 6 5 6 6 7 5 3 3 4 4 2 3 4 4 11 6 4 4 5 5 6 6 7 6 6 5 5 4 5 5
9 8 7 6 7 7 7 7 7 8 6 5 5 6 5 6 5 6 7 6 8 8 8 7 7 8 6 5 5 5 4 3 5 8 4 6 5 8 7 6 6 5 8 8 9 10 12 11 9 8 6 7 7 5 6 4 4 5 4 4 4 3 4 4 4 3 3 3 5 11 7 4 4 6 6 6 6 6 7 6 6 5 4 4 4
8 8 7 6 7 7 6 7 7 6 7 5 5 5 6 5 6 5 5 5 6 5 5 6 6 4 6 5 5 3 4 3 7 6 7 6 7 6 6 6 6 7 9 6 7 8 9 8 7 7 6 7 6 5 4 4 4 4 3 3 3 3 3 4 3 3 3 3 8 9 7 4 5 6 6 6 6 5 6 7 7 6 5 3 4
8 7 8 8 8 7 7 6 6 7 6 4 5 5 5 5 5 5 5 4 5 5 5 5 5 5 5 5 3 4 3 4 3 4 3 4 4 5 5 5 5 5 7 5 5 5 6 5 6 7 5 5 5 4 5 4 4 4 4 3 4 4 4 4 3 2 2 3 9 8 5 4 4 5 5 6 6 5 6 7 6 6 5 4 2
7 7 7 7 7 7 7 7 6 6 6 6 5 4 5 5 4 5 7 5 4 6 6 5 6 6 4 4 4 4 3 3 4 4 3 4 4 4 5 5 5 5 5 5 5 4 5 5 5 5 4 5 5 5 5 5 4 4 4 4 3 4 4 4 4 3 3 3 9 11 5 4 4 4 4 5 6 5 5 5 5 6 6 5 4
8 8 8 7 7 7 7 7 6 6 5 5 5 4 4 3 4 5 5 5 6 5 5 5 5 6 6 5 4 3 3 4 4 4 4 4 4 5 4 4 5 5 5 5 4 4 4 2 3 3 4 5 6 6 6 6 5 4 4 4 4 5 4 4 4 3 3 3 7 10 7 4 3 4 4 4 7 6 6 5 5 6 6 5 5
8 8 6 7 8 6 7 6 6 6 5 3 4 3 4 4 4 4 4 5 5 4 3 4 5 5 6 6 5 4 4 4 4 4 3 4 3 4 4 5 5 6 4 4 3 3 3 3 4 4 4 5 5 6 6 6 5 5 5 5 5 4 4 4 4 4 4 3 3 11 11 6 3 3 4 4 5 6 6 5 5 6 6 5 4
8 8 7 6 7 8 8 7 6 5 5 4 2 2 2 3 4 3 3 5 3 3 4 4 3 4 4 5 5 5 4 3 4 4 4 3 2 3 5 5 5 3 3 3 2 1 1 3 4 4 3 5 5 5 6 6 7 5 6 6 5 6 4 5 5 5 3 3 2 9 12 9 5 3 3 4 4 6 7 6 6 5 6 4 5
9 9 8 7 6 7 7 7 6 3 4 4 3 2 2 2 2 3 4 3 3 2 2 2 3 3 3 3 4 5 3 4 4 5 3 4 4 5 5 4 5 4 4 3 1 2 2 1 2 3 5 4 5 6 6 7 6 7 6 7 6 6 5 5 4 4 4 4 4 4 10 12 9 7 4 4 3 4 6 6 6 6 7 5 4
9 9 7 7 7 7 7 6 6 4 2 3 3 3 2 1 1 1 2 3 4 3 2 1 1 2 2 4 2 3 2 1 3 4 4 4 4 5 4 5 5 3 4 3 4 3 2 3 3 3 4 5 4 4 6 6 6 6 6 7 7 7 7 6 6 6 5 4 3 4 4 9 12 10 9 6 5 5 5 8 7 8 6 6 5
7 9 7 7 8 5 5 6 6 5 4 2 3 2 2 2 1 0 1 1 3 3 4 3 1 1 1 2 3 2 2 2 5 4 2 2 3 3 3 4 5 5 5 5 4 4 4 4 4 4 3 4 5 5 5 5 5 5 5 5 5 7 7 7 7 6 5 5 5 4 4 5 8 12 11 10 8 6 6 6 7 7 7 6 6
8 7 7 8 7 4 4 4 4 5 3 3 2 3 3 2 2 2 1 1 1 2 3 3 3 2 2 2 2 3 4 2 4 4 2 3 3 3 3 4 5 6 4 4 5 5 5 6 8 7 7 6 6 5 5 6 5 5 5 5 5 6 7 7 7 7 6 6 5 4 5 4 5 7 10 14 12 10 9 7 7 8 7 6 7
7 7 8 9 6 5 4 3 3 3 4 3 3 2 2 2 3 3 2 1 1 1 2 4 4 4 3 3 3 1 4 5 4 4 4 3 3 3 3 4 4 6 5 5 5 6 5 6 6 7 7 7 7 6 6 5 5 6 4 4 6 6 6 7 6 6 6 6 5 5 5 5 4 4 6 8 12 13 12 10 9 8 7 8 8
7 7 8 7 7 6 5 4 5 4 4 3 3 2 3 2 2 2 2 0 0 2 2 2 3 4 5 4 6 4 5 6 5 4 3 3 4 3 3 2 4 5 6 5 5 5 5 5 5 6 6 7 7 6 5 4 4 5 4 5 5 6 6 7 7 7 7 6 6 6 5 5 5 5 5 4 6 11 14 12 11 9 7 7 9
6 7 8 7 8 7 7 6 6 5 4 4 4 4 3 3 2 3 2 2 2 1 2 2 2 2 2 4 6 5 2 2 3 3 3 3 4 4 2 2 1 4 5 5 4 3 3 5 5 6 6 5 6 6 4 2 4 4 4 5 5 5 6 6 6 6 7 6 5 6 5 5 5 4 5 6 5 6 15 15 13 11 10 9 8
5 6 7 7 7 7 7 6 5 5 5 5 4 4 3 3 3 3 2 2 2 2 2 2 2 2 2 3 4 5 4 5 5 5 4 3 2 3 5 4 6 5 4 4 4 3 4 4 4 4 5 5 5 5 4 1 3 4 4 5 5 4 6 6 6 6 6 6 7 6 6 5 5 6 6 6 5 5 6 13 15 14 13 11 10
5 6 6 7 6 6 6 7 6 6 5 5 5 3 3 2 2 3 4 3 2 2 2 2 3 3 3 3 3 2 2 3 3 4 3 4 3 3 5 7 5 4 4 6 6 6 6 5 5 4 4 4 2 2 1 1 1 4 5 5 6 6 5 6 6 6 7 8 7 7 6 6 6 6 6 6 6 6 5 6 8 9 11 15 13
6 6 7 7 7 7 7 7 7 7 6 6 5 4 3 3 3 3 3 2 2 3 2 3 2 3 3 2 2 0 1 1 2 2 2 2 3 3 3 5 5 5 5 5 6 7 7 7 6 7 6 5 4 3 3 3 2 3 3 4 7 7 9 7 7 8 7 7 7 6 7 7 7 7 7 6 5 5 5 5 6 7 7 14 17
7 8 8 8 9 8 8 8 7 7 7 6 5 4 4 3 3 3 3 3 2 3 2 3 3 4 3 3 2 2 2 1 0 1 1 1 1 2 4 4 4 4 4 5 4 5 6 5 6 6 7 7 6 5 4 3 3 2 2 4 4 5 9 10 9 7 8 7 7 7 7 7 7 7 7 6 6 6 6 6 6 6 7 5 12
9 9 10 10 9 9 9 8 8 8 7 6 5 4 3 3 3 4 3 4 4 3 3 3 3 3 3 3 2 2 2 2 2 1 1 1 1 2 2 2 3 4 2 2 3 3 5 5 6 5 6 7 6 6 5 4 2 4 3 1 4 5 6 8 9 8 8 8 7 7 7 7 8 8 6 6 7 7 7 6 6 6 6 7 7
10 10 10 10 10 9 9 9 8 8 8 7 5 5 4 2 2 4 2 4 4 4 4 4 3 4 3 3 3 2 2 3 3 3 2 1 1 1 2 2 2 3 4 4 4 3 2 4 6 6 5 5 5 6 6 5 3 3 2 2 3 3 4 5 5 8 8 9 7 7 7 8 8 7 6 6 6 6 7 7 7 6 6 6 6
10 10 11 12 9 10 9 10 9 8 8 7 6 5 5 4 3 4 3 2 4 4 4 4 4 4 4 4 4 3 3 3 3 3 3 3 2 2 1 1 3 4 3 4 4 4 3 4 2 4 4 4 5 4 4 6 4 4 4 4 0 1 2 3 3 5 6 8 9 9 8 7 8 8 6 8 7 7 6 7 7 7 7 7 6
12 12 12 12 9 12 11 11 9 9 8 8 7 6 7 6 5 5 4 5 4 4 4 4 4 4 4 4 4 4 4 4 4 3 4 3 3 2 3 3 3 2 1 3 4 4 2 3 4 4 3 3 4 2 4 3 4 2 2 1 2 4 2 1 2 3 2 5 5 7 8 7 7 6 6 7 6 7 7 7 7 7 7 7 7
13 12 12 12 11 11 10 11 9 9 8 9 8 7 7 7 7 6 6 5 5 4 4 4 4 3 4 4 5 4 4 4 3 4 4 4 3 3 3 3 4 3 3 3 4 4 3 3 3 2 2 1 4 5 4 3 1 0 1 2 1 2 3 1 2 1 2 2 4 4 6 4 5 5 5 6 7 6 6 6 7 7 7 8 8
14 12 11 12 13 12 11 12 10 9 8 9 9 8 8 8 8 7 6 6 5 4 3 4 4 4 4 4 4 4 4 4 4 4 4 4 4 3 3 3 4 3 4 4 4 3 3 3 2 2 2 2 4 1 4 4 4 3 1 1 2 2 3 3 3 3 4 1 5 7 4 2 2 2 4 4 4 4 4 4 5 7 7 7 7
13 12 12 12 14 13 12 12 10 10 9 9 10 9 8 8 8 7 6 5 4 5 5 5 4 4 5 5 5 4 4 5 4 4 4 4 4 4 4 4 4 4 4 4 4 4 4 4 4 3 3 3 3 4 3 3 1 3 2 2 1 0 2 3 4 3 4 4 3 3 10 4 5 3 4 4 3 2 3 4 5 6 5 6 6
13 13 13 13 13 12 12 12 11 11 11 11 10 10 9 8 8 7 6 5 5 5 5 5 5 5 5 4 4 5 5 4 4 5 5 5 4 4 4 4 4 4 4 5 5 6 5 5 4 4 4 4 3 2 2 2 2 3 2 1 2 2 2 3 1 2 4 5 4 6 3 3 7 5 2 3 4 3 4 4 5 6 5 5 5
13 12 12 12 12 11 13 14 13 11 10 12 11 11 10 8 9 8 8 7 6 5 5 6 5 5 6 5 5 4 5 5 5 6 6 6 6 6 5 5 5 5 5 6 6 6 5 5 5 5 5 5 4 4 4 2 2 1 2 2 3 3 4 3 3 2 3 5 4 5 5 5 4 2 1 4 6 5 5 5 6 7 7 6 6
11 13 12 13 13 12 13 14 13 11 11 12 12 12 11 10 9 9 9 8 8 6 6 6 6 6 6 6 5 5 5 6 6 6 6 6 6 6 5 6 5 5 5 5 4 5 5 5 5 5 5 4 4 5 4 3 2 2 1 2 2 2 3 4 4 4 5 5 5 6 6 6 5 5 4 5 4 6 7 6 6 6 6 6 6
Wind_Direction
143 139 137 134 139 135 128 127 125 121 118 116 112 117 124 121 115 113 111 112 114 114 114 116 119 120 123 124 121 125 126 129 124 114 95 119 92 40 124 129 130 132 133 134 136 136 131 131 131 128 121 117 118 115 109 115 115 108 100 102 94 97 106 103 96 106 111 107 102 107 107 107 106 102 99 102 104 103 107 109 105 90 85 88 92
145 139 135 138 137 132 128 129 127 124 122 118 117 116 117 121 123 121 119 120 122 121 122 123 126 126 125 122 120 126 129 134 136 134 122 114 114 117 206 122 126 130 137 134 133 136 135 132 130 125 119 120 118 115 119 122 127 124 122 118 113 117 112 115 116 110 110 110 105 98 98 99 99 101 102 102 99 97 91 75 83 95 85 80 87
139 136 136 137 137 133 129 130 130 128 127 125 121 119 118 126 130 129 127 126 126 126 126 127 125 123 124 126 127 131 133 136 139 140 141 143 141 148 163 133 133 137 149 137 140 142 139 130 128 123 122 120 120 120 122 123 124 117 120 119 125 121 112 116 110 110 110 110 105 102 101 102 105 104 103 101 96 88 78 73 73 76 95 96 86
139 136 134 132 134 132 132 132 132 133 132 127 125 123 122 121 122 122 121 121 122 123 124 122 121 125 126 128 133 136 141 145 151 152 148 147 144 142 138 127 140 147 143 146 144 150 136 136 125 125 125 125 123 122 123 121 120 121 116 118 114 115 109 112 119 115 105 117 132 136 121 117 109 102 101 99 97 93 86 85 86 88 94 92 88
139 135 133 141 141 136 135 133 134 138 135 130 129 130 128 124 121 118 119 119 118 120 122 122 126 129 130 133 135 139 143 143 141 143 147 143 140 136 134 134 136 139 141 143 148 143 145 138 131 133 130 124 125 129 125 124 124 119 122 124 130 121 114 111 109 120 126 156 167 189 113 105 104 105 104 103 98 96 96 94 92 93 92 86 81
138 135 138 134 139 141 137 137 140 142 138 135 137 137 133 128 127 124 124 125 124 123 126 128 129 132 133 134 135 137 135 135 136 136 131 135 136 134 133 136 139 142 143 146 145 147 142 140 137 135 134 131 130 124 126 126 126 126 129 130 131 130 120 121 118 107 134 221 258 193 122 116 111 109 108 103 100 100 102 100 99 95 91 87 87
137 132 134 134 133 142 138 141 147 146 142 141 143 143 141 138 133 132 130 128 129 130 130 132 135 136 138 137 137 136 134 134 132 126 119 119 122 131 134 136 142 143 148 147 149 150 148 150 143 139 137 138 127 127 128 126 124 123 123 118 124 120 110 110 121 128 183 216 129 104 110 109 112 105 108 104 103 101 96 94 97 94 89 89 83
134 132 130 128 142 138 145 148 150 148 147 147 149 151 150 145 141 138 136 133 133 134 135 137 139 141 141 141 140 137 136 134 131 128 121 122 130 133 136 139 141 143 147 149 149 153 154 151 151 144 138 131 128 129 128 127 121 118 120 123 121 113 109 118 126 172 203 251 105 92 115 110 100 103 111 107 106 104 100 103 98 95 95 96 103
132 132 130 132 131 142 151 154 147 149 152 150 149 152 154 150 147 144 141 140 140 140 139 141 141 140 140 141 139 139 137 136 133 128 118 117 123 131 131 134 141 145 145 149 152 155 153 153 145 140 140 135 130 127 128 121 121 120 121 124 121 117 121 121 149 198 222 138 148 103 109 117 114 109 103 100 103 105 105 107 105 95 89 89 85
125 125 132 130 138 135 158 139 142 149 153 149 148 151 154 155 152 148 143 140 141 143 143 143 141 141 141 141 141 140 138 134 129 125 119 113 115 112 122 135 138 142 142 151 151 143 140 139 142 142 134 129 131 123 119 121 118 116 122 124 119 110 110 136 170 228 294 171 125 87 38 352 108 100 91 87 91 82 54 51 58 80 93 89 84
123 126 129 129 133 144 148 143 141 152 153 154 152 152 155 158 156 151 145 144 142 141 146 143 143 142 143 143 143 143 139 132 129 126 128 126 127 128 134 139 140 140 147 152 147 146 146 150 145 134 127 120 110 111 115 114 106 117 116 122 116 112 107 164 214 192 157 95 82 96 84 46 90 96 112 107 88 81 89 99 102 98 89 84 84
121 123 121 123 129 148 157 149 144 149 158 157 156 152 154 159 156 153 150 148 145 148 149 148 145 145 144 145 147 147 141 135 132 133 136 137 137 139 143 139 142 146 149 149 151 149 150 141 138 136 129 124 114 108 109 113 117 116 120 124 112 118 142 207 254 93 143 129 99 115 142 119 93 96 99 101 102 97 96 96 96 94 84 82 86
126 124 121 129 136 147 157 157 154 154 146 158 157 156 155 156 157 156 153 152 154 152 154 153 147 146 146 147 149 148 142 139 140 139 143 147 147 146 148 146 145 150 150 152 153 154 145 143 143 139 132 126 119 114 112 109 114 126 125 119 126 131 177 226 235 169 113 99 117 135 95 91 84 101 112 101 97 103 99 97 96 94 89 87 92
127 125 125 128 133 143 156 154 162 159 155 145 162 156 155 152 153 155 153 157 161 161 159 155 152 148 147 149 150 148 147 145 146 146 147 148 150 142 150 152 149 150 153 155 154 139 140 145 144 144 134 125 124 120 112 108 110 137 144 140 141 160 191 229 272 103 106 103 107 89 99 106 97 109 112 107 100 92 98 98 100 96 94 99 95
129 124 129 128 136 149 154 154 158 163 158 153 147 137 144 149 149 148 155 167 168 161 161 159 153 151 149 147 146 149 150 151 152 150 147 146 142 142 158 154 149 150 152 154 150 148 148 151 147 147 136 133 126 121 118 115 118 130 156 153 148 179 213 198 201 116 127 116 105 170 116 96 113 141 104 102 99 101 98 98 98 101 100 94 96
122 125 127 133 134 138 152 152 153 157 158 156 144 128 121 123 139 149 162 172 165 160 166 164 157 155 146 142 145 152 157 155 155 151 152 152 150 145 141 148 154 145 144 147 146 150 151 150 151 146 143 138 131 126 127 131 125 128 151 157 158 197 236 287 132 138 125 148 124 71 105 90 106 127 112 110 109 103 106 106 102 104 107 105 102
129 130 130 127 136 141 142 156 147 153 156 158 139 112 84 130 129 140 165 167 167 174 168 166 161 151 146 145 152 158 159 156 151 148 152 158 157 141 146 157 158 146 145 145 146 149 148 151 149 146 146 138 132 126 131 134 134 132 141 159 166 162 278 296 96 140 152 99 134 147 105 123 142 125 122 115 112 113 113 109 111 110 100 102 101
134 132 124 131 133 136 136 137 146 159 154 156 137 153 136 138 111 136 112 138 164 182 172 157 145 159 161 154 155 160 159 153 151 150 154 160 159 147 145 153 155 148 146 146 147 146 147 146 148 151 141 136 132 133 135 138 136 139 146 159 166 169 229 266 163 86 87 158 148 105 99 90 128 129 127 120 117 114 112 113 111 111 112 105 94
139 141 136 136 131 132 131 140 140 146 153 159 154 155 172 167 100 22 199 183 168 120 189 154 138 196 172 162 157 152 147 153 146 152 151 153 160 152 146 148 152 147 146 146 145 144 144 142 141 142 140 134 131 126 124 128 134 150 156 163 168 171 206 242 159 153 113 203 102 141 100 117 158 137 124 123 117 121 111 109 121 118 108 108 106
138 137 143 142 143 144 141 136 141 145 149 142 142 146 157 159 167 153 221 188 162 116 99 133 167 183 190 166 157 153 163 160 159 162 160 155 155 180 144 141 142 147 150 144 145 144 140 139 139 137 134 132 128 125 111 91 100 132 176 170 174 174 198 241 135 157 144 78 353 103 97 145 170 136 128 127 126 111 117 111 107 118 117 107 102
140 142 144 144 146 142 151 148 145 142 134 124 134 141 149 159 154 177 204 194 174 152 132 116 182 177 179 160 159 185 158 183 158 182 157 171 163 146 151 140 141 156 147 146 148 146 144 144 142 138 139 137 134 124 115 113 93 99 179 199 180 199 197 182 189 152 171 124 207 98 97 111 174 135 137 140 127 121 122 126 115 112 121 114 108
152 150 151 148 142 143 137 139 141 140 130 149 142 151 141 162 162 166 183 179 169 214 174 180 175 171 175 166 186 213 197 145 188 161 172 157 163 148 157 153 141 143 141 147 151 154 151 147 148 148 145 148 152 175 159 129 115 94 235 194 205 205 202 177 209 176 153 129 147 108 119 162 154 142 145 135 131 129 129 125 116 117 113 114 107
156 154 153 151 142 139 145 147 147 140 143 138 142 138 150 152 153 157 160 173 181 190 182 192 199 147 200 195 169 217 228 155 205 152 160 148 137 163 165 154 143 133 134 140 151 156 151 141 141 145 148 160 189 200 193 175 168 157 211 214 226 202 186 176 194 149 205 90 109 116 131 169 165 148 140 138 130 140 137 123 120 122 128 122 130
157 159 151 149 156 156 156 148 157 154 155 148 147 152 155 161 147 155 156 163 170 181 192 181 220 156 176 209 199 210 184 189 88 152 148 184 161 177 160 143 150 164 151 158 151 154 143 146 145 138 168 195 218 204 209 186 189 192 206 220 219 187 198 178 206 169 169 157 110 125 150 166 188 153 141 140 143 149 140 130 125 118 112 133 125
158 153 151 158 158 154 153 157 158 158 159 161 167 154 156 169 156 152 146 165 162 166 182 188 185 166 173 184 202 185 179 196 166 170 201 165 163 179 170 184 181 184 182 194 181 158 177 171 159 176 204 218 226 215 241 190 197 200 215 225 232 214 195 190 193 186 153 148 105 133 163 176 194 162 152 147 145 154 148 138 133 130 140 138 140
159 168 165 163 164 164 164 149 158 157 154 178 177 153 166 159 159 157 145 174 162 170 180 197 166 174 185 191 182 186 182 179 171 191 179 169 177 173 183 184 188 201 187 203 213 182 198 177 176 183 209 221 221 214 213 219 204 212 209 198 226 213 206 192 182 197 150 145 121 140 166 193 205 178 157 153 146 152 160 147 148 139 149 151 159
174 170 166 166 163 165 158 155 165 153 169 174 159 166 185 168 166 169 158 165 190 172 192 193 178 173 192 191 190 195 181 171 168 186 185 188 187 185 196 179 196 206 195 219 217 188 206 185 185 191 198 220 224 211 203 203 237 204 206 217 221 229 209 199 187 189 160 169 126 150 165 203 209 208 175 153 146 155 166 157 156 147 152 165 163
181 164 171 164 169 162 159 166 154 159 170 178 164 170 173 174 168 168 184 160 179 173 181 192 174 176 193 191 207 200 180 187 176 179 187 200 193 195 199 194 202 206 200 216 221 210 211 199 188 191 205 212 220 218 221 200 199 228 206 218 204 222 229 196 198 196 164 189 138 156 169 193 213 243 203 183 145 159 162 156 164 158 156 164 167
177 161 170 169 168 157 164 167 149 169 154 179 168 173 161 178 175 188 187 168 179 182 172 158 181 178 189 201 195 197 200 200 189 180 192 186 192 195 203 209 215 207 192 217 220 204 201 177 174 177 198 217 224 223 221 216 195 205 216 212 229 216 214 208 205 206 189 162 217 146 168 177 203 222 242 201 161 161 165 164 171 154 162 164 176
175 166 172 165 164 158 171 157 162 163 147 167 145 161 176 193 189 183 157 172 171 167 162 179 169 171 168 192 193 199 208 209 175 198 184 162 176 214 212 213 222 218 199 206 225 228 215 175 188 188 209 207 221 226 237 217 214 209 215 218 209 233 199 212 205 211 179 193 199 137 167 168 187 202 238 273 210 172 170 165 176 155 166 171 171
174 166 168 162 147 167 164 155 149 152 159 162 149 144 169 217 194 171 180 157 128 156 175 168 168 169 154 173 187 201 218 170 191 203 155 155 194 206 220 224 218 211 205 178 134 223 149 159 226 181 210 215 213 217 225 222 227 211 202 222 215 226 214 218 217 213 204 198 195 177 163 167 176 190 210 220 275 236 185 178 172 164 168 167 165
174 164 166 151 156 173 152 152 140 155 226 146 150 154 187 176 174 187 186 136 155 154 148 164 182 154 162 153 165 190 167 82 209 210 185 185 206 214 208 215 216 237 207 178 184 205 166 154 149 151 188 208 228 227 230 232 219 230 206 213 213 217 222 210 219 212 227 210 215 204 174 173 171 179 197 209 218 245 233 189 185 185 176 167 162
164 160 154 152 157 165 145 157 145 153 184 185 137 150 143 151 119 164 175 186 185 161 166 166 157 101 106 152 161 158 104 126 261 233 204 210 231 224 223 217 207 216 225 189 179 192 164 155 173 182 154 214 199 220 234 236 232 234 236 215 210 222 227 218 213 221 220 224 222 225 218 201 179 179 185 195 204 219 236 232 203 195 187 190 161
156 156 151 158 153 152 152 153 149 164 183 168 150 180 142 127 147 132 114 211 217 190 156 146 151 139 123 93 184 155 172 165 195 236 200 167 222 234 215 216 215 206 201 189 191 195 183 177 177 184 180 192 208 202 221 234 239 235 226 235 222 233 228 226 219 217 226 237 241 240 239 223 210 184 185 188 193 203 217 225 226 215 198 191 178
156 156 163 158 157 154 154 145 155 171 170 155 190 136 144 151 155 156 142 183 150 201 151 140 156 161 147 138 96 172 169 187 195 231 225 203 212 236 205 211 210 204 193 190 204 198 195 191 182 193 176 190 198 207 219 237 247 246 238 228 234 223 233 245 237 233 218 220 236 235 241 242 231 236 212 184 187 194 203 208 220 229 222 202 188
160 152 157 160 165 160 169 156 166 168 180 154 150 127 125 143 93 96 112 97 187 147 142 152 151 144 153 159 169 234 205 207 198 206 242 196 198 214 251 213 206 204 205 197 206 206 202 204 197 213 185 195 197 201 225 231 247 260 260 256 246 242 224 222 227 229 231 224 222 227 225 234 233 225 238 234 197 188 193 201 208 216 218 222 209
158 158 160 162 167 161 174 177 173 166 162 151 140 126 137 130 121 98 96 143 127 100 116 141 137 140 139 127 139 158 174 170 183 192 220 209 205 209 187 214 247 229 209 212 216 213 208 211 210 213 216 209 205 206 201 238 258 270 275 254 261 261 246 228 220 223 233 213 228 216 224 234 233 230 233 240 229 204 185 192 199 207 213 217 221
154 164 167 173 173 169 173 174 163 162 158 148 141 149 145 133 142 129 108 110 103 107 100 107 105 104 111 119 135 148 165 173 188 188 203 229 226 206 150 241 212 217 203 196 208 217 228 236 220 224 222 220 212 210 200 188 267 271 277 273 261 261 265 255 220 221 229 214 211 227 212 212 223 219 224 229 237 234 184 190 197 203 210 208 210
157 166 167 172 172 169 164 152 156 150 145 139 134 127 126 135 111 146 143 147 134 98 99 95 88 104 115 104 92 113 133 147 153 162 175 190 204 209 177 212 194 177 201 199 196 200 213 223 222 230 249 252 226 205 196 184 289 308 292 314 297 274 275 267 254 218 219 223 217 210 213 205 211 222 226 230 225 223 229 201 196 208 207 206 204
160 169 173 174 176 165 165 158 161 153 149 156 166 176 180 171 155 159 150 118 112 114 99 108 112 93 74 73 94 222 128 164 142 111 158 170 179 183 190 184 182 189 201 201 201 195 204 211 222 228 224 236 241 219 198 195 187 231 275 303 286 292 275 266 251 242 235 223 223 225 228 211 216 214 219 229 233 234 220 226 227 223 227 191 201
168 173 179 181 181 178 168 167 161 161 172 175 180 183 177 163 161 162 141 143 124 114 102 75 72 74 71 95 100 93 95 85 268 192 163 209 202 179 173 179 171 187 203 215 205 196 192 199 212 217 222 222 221 210 203 197 217 241 206 234 276 288 292 279 265 247 238 231 226 223 224 230 224 216 221 221 224 225 224 228 225 232 232 222 192
180 180 185 182 182 181 177 169 166 170 180 183 172 172 175 176 169 155 148 141 147 157 122 112 89 88 88 73 68 66 73 95 81 69 199 201 177 189 202 180 209 169 196 192 199 178 197 197 195 199 216 214 221 207 197 178 214 240 226 215 253 248 250 276 273 264 244 233 228 227 222 228 221 221 218 216 221 222 230 221 230 231 226 229 215
179 182 183 180 179 181 182 172 175 174 178 182 179 168 158 138 187 119 152 116 63 43 70 83 104 105 86 86 72 66 92 95 95 90 92 115 105 175 167 189 190 146 151 146 147 152 193 212 198 206 197 210 231 196 187 208 195 209 216 236 226 238 218 235 257 285 275 255 240 219 227 225 231 231 217 226 231 230 230 227 222 223 233 236 237
180 180 181 182 178 185 184 177 173 179 177 180 185 151 142 133 105 119 91 67 102 104 98 109 103 107 98 66 73 80 73 79 92 112 105 100 114 120 110 160 130 133 144 132 127 123 171 181 247 222 201 201 218 178 185 192 219 191 212 220 220 267 204 229 247 241 271 260 244 253 236 221 220 217 223 228 226 230 229 236 233 223 233 240 239
185 183 181 182 179 184 183 176 173 178 179 173 169 145 140 143 134 129 124 112 122 135 145 130 125 110 108 107 95 88 93 87 82 67 89 106 115 93 92 92 86 81 124 125 106 100 94 62 126 168 201 230 200 168 180 187 203 223 302 190 187 217 224 131 286 265 234 269 259 233 233 257 244 234 224 229 231 229 232 229 234 244 234 235 239
188 186 181 181 177 181 177 174 173 176 179 175 170 166 169 160 159 164 162 159 152 161 160 143 145 141 105 111 111 98 86 88 84 85 84 99 108 124 118 111 95 90 80 86 91 96 114 132 94 93 138 201 227 177 155 153 142 225 308 294 353 321 310 8 300 254 230 227 280 324 279 229 248 243 242 247 232 226 225 225 224 228 234 237 238
190 179 177 179 178 178 174 174 174 174 178 180 177 180 177 172 174 177 168 163 153 145 112 123 124 110 117 120 109 112 111 98 88 87 89 90 101 106 109 99 104 95 78 68 69 64 64 52 46 86 74 55 357 230 157 151 146 120 112 36 331 273 280 272 278 310 288 319 329 321 327 311 357 266 238 226 233 215 225 236 223 223 219 226 234
179 175 175 175 178 178 173 175 176 175 176 181 184 190 184 179 180 183 168 167 155 132 140 130 117 119 118 128 128 126 119 107 104 99 102 103 99 102 105 99 106 108 112 100 98 93 93 80 58 50 33 27 31 26 38 34 327 92 65 45 16 17 296 270 271 296 297 307 273 211 277 345 315 310 306 305 280 224 194 241 229 219 224 225 219
180 177 178 175 175 175 173 177 179 178 176 178 186 192 193 183 183 180 172 162 145 141 146 141 136 130 130 128 127 118 109 99 95 102 104 105 105 97 93 91 85 96 104 104 94 90 81 76 82 67 59 59 50 36 13 35 18 31 339 4 300 285 255 223 213 228 280 276 271 256 226 203 266 258 239 259 284 286 259 246 259 269 235 217 231
180 173 175 171 173 173 176 181 183 182 178 179 187 193 196 189 189 185 176 163 157 149 158 146 146 151 139 138 137 138 127 121 115 113 113 107 103 104 99 94 88 74 72 82 94 93 93 92 81 79 82 89 75 54 52 61 59 49 329 324 292 323 302 249 222 302 264 230 274 284 279 272 263 229 203 258 248 248 248 243 245 251 253 241 231
172 171 173 174 174 174 179 185 185 185 182 182 188 193 196 195 194 188 182 169 164 162 164 160 158 165 153 153 154 141 139 127 127 125 119 117 112 104 104 104 98 96 96 100 95 98 99 98 90 86 82 79 83 84 81 67 66 79 19 17 20 359 340 332 332 324 319 301 289 278 278 271 267 262 247 244 256 255 251 237 242 247 251 248 249